Home   Weather   Washington Monument   Past weeks
Flag for USA

Past Weather in Washington Monument, Maryland, USA — Yesterday and Last 2 Weeks

Now
72 °F

Passing clouds.


Feels Like: 75 °F
Forecast: 81 / 67 °F
Wind: 6 mph from Northwest

Location: Baltimore-Washington International Airport

Current Time: May 24, 2019 at 8:08:07 am

Latest Report: May 24, 2019 at 6:54 am


Visibility: 10 mi

Pressure: 29.97 "Hg

Humidity: 68%

Dew Point: 61 °F

Location of Washington MonumentLocation

Past Weather in Washington Monument — Graph

°F

Washington Monument Temperature Yesterday

Maximum temperature yesterday: 85 °F (at 2:54 pm)
Minimum temperature yesterday: 59 °F (at 5:54 am)
Average temperature yesterday: 71 °F

High & Low Weather Summary for the Past Weeks

 TemperatureHumidityPressure
High90 °F (May 20, 3:54 pm)97% (May 11, 1:22 am)30.28 "Hg (May 11, 1:22 am)
Low44 °F (May 15, 3:54 am)29% (May 16, 5:54 pm)29.74 "Hg (May 12, 12:54 pm)
Average65 °F73%29.94 "Hg
* Reported May 9 6:54 am — May 24 6:54 am, Washington Monument. Weather by CustomWeather, © 2019

Note: Actual official high and low records may vary slightly from our data, if they occured in-between our weather recording intervals... More about our weather records

Advertising

Washington Monument Weather History for the Previous 24 Hours

Scroll right to see more
 ConditionsComfort  
Time TempWeatherWind HumidityBarometerVisibility
6:54 am
Fri, May 24
72 °FPassing clouds.6 mph68%29.97 "Hg10 mi
5:54 am71 °FScattered clouds.5 mph78%29.93 "Hg10 mi
4:54 am73 °FPassing clouds.8 mph76%29.91 "Hg10 mi
3:54 am72 °FPassing clouds.8 mph84%29.88 "Hg10 mi
2:54 am71 °FPassing clouds.7 mph90%29.88 "Hg10 mi
1:54 am71 °FPassing clouds.3 mph93%29.90 "Hg10 mi
12:54 am72 °FPassing clouds.7 mph91%29.91 "Hg10 mi
11:54 pm
Thu, May 23
72 °FPartly cloudy.9 mph91%29.90 "Hg10 mi
10:54 pm73 °FPassing clouds.6 mph84%29.93 "Hg10 mi
9:54 pm71 °FPassing clouds.6 mph87%29.94 "Hg10 mi
8:54 pm72 °FPartly cloudy.7 mph84%29.93 "Hg10 mi
7:54 pm73 °FBroken clouds.5 mph81%29.95 "Hg10 mi
6:54 pm75 °FBroken clouds.7 mph79%29.96 "Hg10 mi
5:54 pm75 °FBroken clouds.7 mph79%29.96 "Hg10 mi
4:54 pm74 °FBroken clouds.7 mph79%29.97 "Hg10 mi
4:15 pm73 °FBroken clouds.12 mph78%30.01 "Hg10 mi
3:59 pm69 °FStrong thunderstorms. Fog.14 mph93%30.01 "Hg1 mi
3:36 pm83 °FThunderstorms. Broken clouds.3 mph59%30.01 "Hg10 mi
2:54 pm85 °FPartly sunny.6 mph53%30.00 "Hg10 mi
1:54 pm83 °FBroken clouds.8 mph55%30.04 "Hg10 mi
12:54 pm78 °FPartly sunny.6 mph58%30.07 "Hg10 mi
11:54 am76 °FPartly sunny.7 mph58%30.10 "Hg10 mi
10:54 am74 °FBroken clouds.3 mph60%30.12 "Hg10 mi
9:54 am73 °FBroken clouds.7 mph57%30.13 "Hg10 mi
8:54 am68 °FBroken clouds.5 mph63%30.16 "Hg10 mi
Weather by CustomWeather, © 2019

See weather overview